Tracking 18984 objects as of 24-Feb-2018
HD Live streaming from Space Station
objects crossing your sky now

FENGYUN 1C DEB

Track FENGYUN 1C DEB now!
10-day predictions


NORAD ID: 30876
Int'l Code: 1999-025AXN
Perigee: 860.5 km
Apogee: 960.8 km
Inclination: 99.0 °
Period: 103.1 minutes
Semi major axis: 7281 km
RCS: 0.0148 m2 (small)
Launch date: May 10, 1999
Source: People's Republic of China (PRC)
Launch site: Taiyaun Space Center, China (TSC)

Note: This is SATELLITE DEBRIS
aabbcc
Your satellite tracking list
Your tracking list is empty




NASA's NSSDC Master Catalog

Two Line Element Set (TLE):
1 30876U 99025AXN 18054.65400462 -.00000024  00000-0  13597-4 0  9990
2 30876  98.9816 108.7847 0068912 237.7475 277.2629 13.97202062559469
Source of the keplerian elements: AFSPC